Powrót do katalogu

COSMOS 1452

AktywnyNawigacjaLEO
NORAD 13991·PAYLOAD·🇷🇺 Russia

Wystrzelony Apr 12, 1983 z Plesetsk Cosmodrome

Loading…

Następne Przeloty (najbliższe 24 godziny)

TLE

ŚwieżeSource: Space-Track

Epoka: Sep 14, 2026, 09:05 UTC

1 13991U 83031A   26257.37861637  .00000077  00000-0  36964-4 0  9997
2 13991  74.0486  39.5219 0016208 343.2353  37.9573 14.34014664269401

Śledź COSMOS 1452 w czasie rzeczywistym z AllMySat

Download on the App Store